Notices

What's New in latest Release from April 7th, 2021:

- Updated Glossary, including Speed of Maximum Gust, and Total Hourly Precipitation

- Updated national and regional climate services offices contacts and prices information

- Addition of station inventory lists for 1981-2010, 1971-2000, and 1961-1990 Normals.

If you haven't already, please take our survey and provide feedback about our website: https://eccc.sondage-survey.ca/f/LanguageSelection.aspx?s=442ca660-fcf1-47c0-95a9-59707d6fd709

Hourly Data Report for December 24, 2018

CARBERRY CS
MANITOBA
Current Station Operator: ECCC - MSC

49°54'20.900" N
99°21'26.800" W
383.50 m
5010547
71170
WZE

Download Data

Hourly Data (December 2018)
Hourly Data Report for December 24, 2018
TIME
LST
Temp Definition
°C
Dew Point Definition
°C
Rel Hum Definition
%
Precip. Amount Definition
mm

Wind Dir Definition
10's deg

Wind Spd Definition
km/h
Visibility Definition
km
Stn Press Definition
kPa
Hmdx Definition


Wind Chill Definition


Weather Definition


00:00 -10.3 -13.2 79 0.0 15 6   97.32   -14 LegendNANA
01:00 -10.3 -13.0 81 0.0 17 12   97.33   -16 LegendNANA
02:00 -10.5 -13.1 81 0.0 15 9   97.32   -15 LegendNANA
03:00 -10.5 -13.2 81 0.0 14 9   97.35   -15 LegendNANA
04:00 -10.6 -13.1 82 0.0 12 5   97.33   -14 LegendNANA
05:00 -10.4 -12.9 82 0.0 13 8   97.30   -15 LegendNANA
06:00 -10.3 -12.8 81 0.0 12 8   97.28   -15 LegendNANA
07:00 -10.1 -12.8 81 0.0 12 9   97.30   -15 LegendNANA
08:00 -10.4 -12.8 83 0.0 9 6   97.36   -14 LegendNANA
09:00 -10.5 -12.7 83 0.0 8 7   97.40   -15 LegendNANA
10:00 -10.2 -12.7 82 0.0 8 9   97.42   -15 LegendNANA
11:00 -9.6 -12.4 80 0.0 7 10   97.47   -15 LegendNANA
12:00 -9.1 -12.1 78 0.0 8 10   97.45   -14 LegendNANA
13:00 -8.7 -12.0 77 0.0 7 12   97.41   -14 LegendNANA
14:00 -8.5 -11.7 78 0.0 7 12   97.41   -14 LegendNANA
15:00 -9.4 -12.2 80 0.0 7 15   97.45   -16 LegendNANA
16:00 -10.0 -12.9 79 0.0 8 14   97.52   -16 LegendNANA
17:00 -10.8 -13.5 80 0.0 8 10   97.54   -16 LegendNANA
18:00 -12.8 -15.1 83 0.0 7 11   97.58   -19 LegendNANA
19:00 -13.5 -15.1 87 0.0 5 10   97.65   -19 LegendNANA
20:00 -15.9 -17.8 85 0.0 7 7   97.69   -21 LegendNANA
21:00 -15.1 -16.7 88 0.0 2 4   97.74   -18 LegendNANA
22:00 -13.1 -14.6 88 0.0 4 4   97.76   -16 LegendNANA
23:00 -12.7 -14.4 87 0.0 3 1   97.79   -13 LegendNANA

Notes on Data Quality.

Legend

  • E = Estimated
  • M = Missing
  • NA = Not Available*
  • [empty] = Indicates an unobserved value
Date modified: